User: anonymous   Login
Location: Unspecified
(0.0000°N, 0.0000°E)
Time: 14:37:14
(UTC+00:00)
Language:

STARS-C - Orbit

View from above orbital plane
View from above orbital plane
View from above satellite
View from above satellite

Ground track
Ground track

The orbit data is extracted from the following two-line orbital elements,

1 41895U 98067KR  17084.59392146 +.00021135 +00000-0 +28730-3 0  9991
2 41895 051.6433 093.8059 0005092 014.5514 345.5624 15.57534456014943
Epoch (UTC): 25 March 2017 14:15:14
Eccentricity: 0.0005092
inclination: 51.6433°
perigee height: 391 km
apogee height: 398 km
right ascension of ascending node: 93.8059°
argument of perigee: 14.5514°
revolutions per day: 15.57534456
mean anomaly at epoch: 345.5624°
orbit number at epoch: 1494

The dashed part of the orbit path shows where the satellite is in the earth's shadow,  

DLR